Year,Month,Day,Hour,Minute,Value (Times are PST for temperature in C)
2020,08,10,00,00,17.90
2020,08,10,00,01,17.90
2020,08,10,00,02,17.90
2020,08,10,00,03,17.90
2020,08,10,00,04,17.90
2020,08,10,00,05,17.90
2020,08,10,00,06,17.80
2020,08,10,00,07,17.80
2020,08,10,00,09,17.80
2020,08,10,00,11,17.80
2020,08,10,00,12,17.80
2020,08,10,00,13,17.80
2020,08,10,00,15,17.80
2020,08,10,00,17,17.70
2020,08,10,00,18,17.70
2020,08,10,00,19,17.70
2020,08,10,00,20,17.70
2020,08,10,00,21,17.70
2020,08,10,00,22,17.70
2020,08,10,00,23,17.60
2020,08,10,00,25,17.60
2020,08,10,00,26,17.60
2020,08,10,00,28,17.50
2020,08,10,00,29,17.50
2020,08,10,00,30,17.40
2020,08,10,00,31,17.40
2020,08,10,00,32,17.40
2020,08,10,00,34,17.30
2020,08,10,00,35,17.30
2020,08,10,00,37,17.30
2020,08,10,00,38,17.30
2020,08,10,00,39,17.20
2020,08,10,00,40,17.20
2020,08,10,00,41,17.20
2020,08,10,00,42,17.20
2020,08,10,00,43,17.20
2020,08,10,00,44,17.20
2020,08,10,00,45,17.20
2020,08,10,00,47,17.20
2020,08,10,00,49,17.10
2020,08,10,00,50,17.10
2020,08,10,00,51,17.10
2020,08,10,00,52,17.10
2020,08,10,00,53,17.10
2020,08,10,00,54,17.10
2020,08,10,00,55,17.10
2020,08,10,00,56,17.10
2020,08,10,00,58,17.00
2020,08,10,01,00,16.90
2020,08,10,01,02,16.90
2020,08,10,01,03,16.80
2020,08,10,01,04,16.80
2020,08,10,01,05,16.80
2020,08,10,01,06,16.80
2020,08,10,01,07,16.80
2020,08,10,01,08,16.80
2020,08,10,01,09,16.80
2020,08,10,01,10,16.80
2020,08,10,01,11,16.80
2020,08,10,01,12,16.80
2020,08,10,01,13,16.80
2020,08,10,01,15,16.70
2020,08,10,01,16,16.70
2020,08,10,01,17,16.70
2020,08,10,01,18,16.70
2020,08,10,01,19,16.60
2020,08,10,01,20,16.60
2020,08,10,01,21,16.60
2020,08,10,01,22,16.60
2020,08,10,01,23,16.60
2020,08,10,01,24,16.60
2020,08,10,01,25,16.60
2020,08,10,01,26,16.60
2020,08,10,01,27,16.60
2020,08,10,01,28,16.60
2020,08,10,01,29,16.60
2020,08,10,01,30,16.60
2020,08,10,01,31,16.60
2020,08,10,01,32,16.60
2020,08,10,01,33,16.60
2020,08,10,01,34,16.60
2020,08,10,01,35,16.60
2020,08,10,01,36,16.60
2020,08,10,01,37,16.60
2020,08,10,01,38,16.60
2020,08,10,01,39,16.60
2020,08,10,01,40,16.60
2020,08,10,01,41,16.60
2020,08,10,01,42,16.50
2020,08,10,01,43,16.50
2020,08,10,01,44,16.40
2020,08,10,01,45,16.40
2020,08,10,01,46,16.40
2020,08,10,01,47,16.40
2020,08,10,01,48,16.40
2020,08,10,01,49,16.30
2020,08,10,01,50,16.30
2020,08,10,01,51,16.30
2020,08,10,01,52,16.30
2020,08,10,01,53,16.30
2020,08,10,01,54,16.20
2020,08,10,01,55,16.20
2020,08,10,01,56,16.20
2020,08,10,01,57,16.20
2020,08,10,01,58,16.20
2020,08,10,01,59,16.20
2020,08,10,02,00,16.20
2020,08,10,02,01,16.20
2020,08,10,02,02,16.20
2020,08,10,02,03,16.20
2020,08,10,02,04,16.20
2020,08,10,02,05,16.10
2020,08,10,02,06,16.10
2020,08,10,02,07,16.10
2020,08,10,02,08,16.10
2020,08,10,02,09,16.10
2020,08,10,02,10,16.10
2020,08,10,02,11,16.10
2020,08,10,02,12,16.10
2020,08,10,02,13,16.20
2020,08,10,02,14,16.20
2020,08,10,02,15,16.20
2020,08,10,02,16,16.20
2020,08,10,02,17,16.20
2020,08,10,02,18,16.20
2020,08,10,02,19,16.10
2020,08,10,02,20,16.10
2020,08,10,02,21,16.10
2020,08,10,02,22,16.00
2020,08,10,02,23,15.90
2020,08,10,02,24,15.90
2020,08,10,02,25,15.90
2020,08,10,02,26,15.90
2020,08,10,02,27,15.90
2020,08,10,02,28,15.90
2020,08,10,02,29,15.80
2020,08,10,02,30,15.80
2020,08,10,02,31,15.80
2020,08,10,02,32,15.80
2020,08,10,02,33,15.80
2020,08,10,02,34,15.70
2020,08,10,02,35,15.70
2020,08,10,02,36,15.70
2020,08,10,02,37,15.70
2020,08,10,02,38,15.70
2020,08,10,02,39,15.60
2020,08,10,02,40,15.60
2020,08,10,02,41,15.60
2020,08,10,02,42,15.60
2020,08,10,02,43,15.60
2020,08,10,02,44,15.60
2020,08,10,02,45,15.60
2020,08,10,02,46,15.60
2020,08,10,02,47,15.60
2020,08,10,02,48,15.60
2020,08,10,02,49,15.60
2020,08,10,02,50,15.60
2020,08,10,02,51,15.60
2020,08,10,02,52,15.60
2020,08,10,02,53,15.60
2020,08,10,02,54,15.60
2020,08,10,02,55,15.60
2020,08,10,02,56,15.60
2020,08,10,02,57,15.60
2020,08,10,02,58,15.60
2020,08,10,02,59,15.60
2020,08,10,03,00,15.60
2020,08,10,03,01,15.60
2020,08,10,03,02,15.60
2020,08,10,03,03,15.60
2020,08,10,03,04,15.60
2020,08,10,03,05,15.60
2020,08,10,03,06,15.60
2020,08,10,03,07,15.60
2020,08,10,03,08,15.60
2020,08,10,03,09,15.60
2020,08,10,03,10,15.60
2020,08,10,03,11,15.60
2020,08,10,03,12,15.60
2020,08,10,03,13,15.60
2020,08,10,03,14,15.60
2020,08,10,03,15,15.60
2020,08,10,03,16,15.50
2020,08,10,03,17,15.40
2020,08,10,03,18,15.40
2020,08,10,03,19,15.40
2020,08,10,03,20,15.40
2020,08,10,03,21,15.30
2020,08,10,03,22,15.30
2020,08,10,03,23,15.30
2020,08,10,03,24,15.30
2020,08,10,03,25,15.30
2020,08,10,03,26,15.30
2020,08,10,03,27,15.40
2020,08,10,03,28,15.40
2020,08,10,03,29,15.40
2020,08,10,03,30,15.40
2020,08,10,03,31,15.40
2020,08,10,03,32,15.40
2020,08,10,03,33,15.40
2020,08,10,03,34,15.40
2020,08,10,03,35,15.40
2020,08,10,03,36,15.40
2020,08,10,03,37,15.40
2020,08,10,03,38,15.40
2020,08,10,03,39,15.40
2020,08,10,03,40,15.40
2020,08,10,03,41,15.40
2020,08,10,03,42,15.40
2020,08,10,03,43,15.40
2020,08,10,03,44,15.40
2020,08,10,03,45,15.50
2020,08,10,03,46,15.40
2020,08,10,03,47,15.40
2020,08,10,03,48,15.40
2020,08,10,03,49,15.40
2020,08,10,03,50,15.40
2020,08,10,03,51,15.40
2020,08,10,03,52,15.40
2020,08,10,03,53,15.40
2020,08,10,03,54,15.40
2020,08,10,03,55,15.40
2020,08,10,03,56,15.30
2020,08,10,03,57,15.30
2020,08,10,03,58,15.30
2020,08,10,03,59,15.30
2020,08,10,04,00,15.30
2020,08,10,04,01,15.30
2020,08,10,04,02,15.30
2020,08,10,04,03,15.30
2020,08,10,04,04,15.30
2020,08,10,04,05,15.30
2020,08,10,04,06,15.30
2020,08,10,04,07,15.30
2020,08,10,04,08,15.30
2020,08,10,04,09,15.30
2020,08,10,04,10,15.20
2020,08,10,04,11,15.20
2020,08,10,04,12,15.20
2020,08,10,04,13,15.10
2020,08,10,04,14,15.00
2020,08,10,04,15,15.00
2020,08,10,04,16,14.90
2020,08,10,04,17,14.90
2020,08,10,04,18,14.80
2020,08,10,04,19,14.80
2020,08,10,04,20,14.80
2020,08,10,04,21,14.70
2020,08,10,04,22,14.70
2020,08,10,04,23,14.70
2020,08,10,04,24,14.60
2020,08,10,04,25,14.60
2020,08,10,04,26,14.60
2020,08,10,04,27,14.50
2020,08,10,04,28,14.50
2020,08,10,04,29,14.40
2020,08,10,04,30,14.40
2020,08,10,04,31,14.40
2020,08,10,04,32,14.40
2020,08,10,04,33,14.40
2020,08,10,04,34,14.30
2020,08,10,04,35,14.30
2020,08,10,04,36,14.30
2020,08,10,04,37,14.30
2020,08,10,04,38,14.30
2020,08,10,04,39,14.20
2020,08,10,04,40,14.20
2020,08,10,04,41,14.20
2020,08,10,04,42,14.20
2020,08,10,04,43,14.10
2020,08,10,04,44,14.10
2020,08,10,04,45,14.10
2020,08,10,04,46,14.10
2020,08,10,04,47,14.10
2020,08,10,04,48,14.10
2020,08,10,04,49,14.10
2020,08,10,04,50,14.10
2020,08,10,04,51,14.10
2020,08,10,04,52,14.00
2020,08,10,04,53,14.00
2020,08,10,04,54,13.90
2020,08,10,04,55,13.90
2020,08,10,04,56,13.90
2020,08,10,04,57,13.90
2020,08,10,04,58,13.90
2020,08,10,04,59,13.90
2020,08,10,05,00,13.90
2020,08,10,05,01,13.90
2020,08,10,05,02,13.90
2020,08,10,05,03,13.90
2020,08,10,05,04,13.90
2020,08,10,05,05,13.90
2020,08,10,05,06,13.90
2020,08,10,05,07,13.80
2020,08,10,05,08,13.80
2020,08,10,05,09,13.80
2020,08,10,05,10,13.80
2020,08,10,05,11,13.80
2020,08,10,05,12,13.80
2020,08,10,05,13,13.80
2020,08,10,05,14,13.80
2020,08,10,05,15,13.80
2020,08,10,05,16,13.80
2020,08,10,05,17,13.80
2020,08,10,05,18,13.70
2020,08,10,05,19,13.70
2020,08,10,05,20,13.70
2020,08,10,05,21,13.80
2020,08,10,05,22,13.80
2020,08,10,05,23,13.80
2020,08,10,05,24,13.80
2020,08,10,05,25,13.80
2020,08,10,05,26,13.90
2020,08,10,05,27,13.90
2020,08,10,05,28,13.90
2020,08,10,05,29,13.90
2020,08,10,05,30,13.90
2020,08,10,05,31,13.90
2020,08,10,05,32,13.90
2020,08,10,05,33,13.90
2020,08,10,05,34,13.90
2020,08,10,05,35,13.90
2020,08,10,05,36,13.90
2020,08,10,05,37,13.90
2020,08,10,05,38,13.90
2020,08,10,05,39,13.90
2020,08,10,05,40,13.90
2020,08,10,05,41,13.90
2020,08,10,05,42,13.90
2020,08,10,05,43,13.90
2020,08,10,05,44,13.80
2020,08,10,05,45,13.80
2020,08,10,05,46,13.80
2020,08,10,05,47,13.80
2020,08,10,05,48,13.80
2020,08,10,05,49,13.80
2020,08,10,05,50,13.80
2020,08,10,05,51,13.90
2020,08,10,05,52,13.90
2020,08,10,05,53,13.90
2020,08,10,05,54,13.90
2020,08,10,05,55,13.90
2020,08,10,05,56,13.90
2020,08,10,05,57,13.90
2020,08,10,05,58,13.90
2020,08,10,05,59,14.00
2020,08,10,06,00,14.00
2020,08,10,06,01,14.00
2020,08,10,06,02,14.10
2020,08,10,06,03,14.10
2020,08,10,06,04,14.10
2020,08,10,06,05,14.10
2020,08,10,06,06,14.10
2020,08,10,06,07,14.20
2020,08,10,06,08,14.20
2020,08,10,06,09,14.20
2020,08,10,06,10,14.20
2020,08,10,06,11,14.20
2020,08,10,06,12,14.20
2020,08,10,06,13,14.20
2020,08,10,06,14,14.30
2020,08,10,06,15,14.30
2020,08,10,06,16,14.30
2020,08,10,06,17,14.30
2020,08,10,06,18,14.30
2020,08,10,06,19,14.30
2020,08,10,06,20,14.30
2020,08,10,06,21,14.30
2020,08,10,06,22,14.30
2020,08,10,06,23,14.30
2020,08,10,06,24,14.30
2020,08,10,06,25,14.30
2020,08,10,06,26,14.30
2020,08,10,06,27,14.30
2020,08,10,06,28,14.30
2020,08,10,06,29,14.30
2020,08,10,06,30,14.30
2020,08,10,06,31,14.30
2020,08,10,06,32,14.30
2020,08,10,06,33,14.30
2020,08,10,06,34,14.30
2020,08,10,06,35,14.30
2020,08,10,06,36,14.30
2020,08,10,06,37,14.30
2020,08,10,06,38,14.30
2020,08,10,06,39,14.30
2020,08,10,06,40,14.40
2020,08,10,06,41,14.40
2020,08,10,06,42,14.40
2020,08,10,06,43,14.40
2020,08,10,06,44,14.40
2020,08,10,06,45,14.40
2020,08,10,06,46,14.40
2020,08,10,06,47,14.40
2020,08,10,06,48,14.40
2020,08,10,06,49,14.40
2020,08,10,06,50,14.40
2020,08,10,06,51,14.50
2020,08,10,06,52,14.50
2020,08,10,06,53,14.50
2020,08,10,06,54,14.60
2020,08,10,06,55,14.60
2020,08,10,06,56,14.60
2020,08,10,06,57,14.60
2020,08,10,06,58,14.70
2020,08,10,06,59,14.70
2020,08,10,07,00,14.70
2020,08,10,07,01,14.70
2020,08,10,07,02,14.70
2020,08,10,07,03,14.70
2020,08,10,07,04,14.80
2020,08,10,07,05,14.80
2020,08,10,07,06,14.80
2020,08,10,07,07,14.80
2020,08,10,07,08,14.80
2020,08,10,07,09,14.80
2020,08,10,07,10,14.80
2020,08,10,07,11,14.90
2020,08,10,07,12,14.90
2020,08,10,07,13,14.90
2020,08,10,07,14,14.90
2020,08,10,07,15,15.00
2020,08,10,07,16,15.00
2020,08,10,07,17,15.10
2020,08,10,07,18,15.10
2020,08,10,07,19,15.10
2020,08,10,07,20,15.10
2020,08,10,07,21,15.20
2020,08,10,07,22,15.20
2020,08,10,07,23,15.20
2020,08,10,07,24,15.30
2020,08,10,07,25,15.30
2020,08,10,07,26,15.30
2020,08,10,07,27,15.40
2020,08,10,07,28,15.40
2020,08,10,07,29,15.40
2020,08,10,07,30,15.40
2020,08,10,07,31,15.50
2020,08,10,07,32,15.60
2020,08,10,07,33,15.60
2020,08,10,07,34,15.60
2020,08,10,07,35,15.70
2020,08,10,07,36,15.70
2020,08,10,07,37,15.70
2020,08,10,07,38,15.80
2020,08,10,07,39,15.80
2020,08,10,07,40,15.80
2020,08,10,07,41,15.80
2020,08,10,07,42,15.90
2020,08,10,07,43,15.90
2020,08,10,07,44,15.90
2020,08,10,07,45,16.00
2020,08,10,07,46,16.10
2020,08,10,07,47,16.10
2020,08,10,07,48,16.10
2020,08,10,07,49,16.20
2020,08,10,07,50,16.20
2020,08,10,07,51,16.20
2020,08,10,07,52,16.20
2020,08,10,07,53,16.20
2020,08,10,07,54,16.20
2020,08,10,07,55,16.20
2020,08,10,07,56,16.20
2020,08,10,07,57,16.20
2020,08,10,07,58,16.30
2020,08,10,07,59,16.30
2020,08,10,08,00,16.30
2020,08,10,08,01,16.40
2020,08,10,08,02,16.40
2020,08,10,08,03,16.50
2020,08,10,08,04,16.60
2020,08,10,08,05,16.60
2020,08,10,08,06,16.60
2020,08,10,08,07,16.70
2020,08,10,08,08,16.70
2020,08,10,08,09,16.70
2020,08,10,08,10,16.70
2020,08,10,08,11,16.70
2020,08,10,08,12,16.80
2020,08,10,08,13,16.70
2020,08,10,08,14,16.70
2020,08,10,08,15,16.70
2020,08,10,08,16,16.70
2020,08,10,08,17,16.70
2020,08,10,08,18,16.70
2020,08,10,08,19,16.70
2020,08,10,08,20,16.80
2020,08,10,08,21,16.80
2020,08,10,08,22,16.80
2020,08,10,08,23,16.90
2020,08,10,08,24,16.90
2020,08,10,08,25,16.90
2020,08,10,08,26,17.00
2020,08,10,08,27,17.10
2020,08,10,08,28,17.10
2020,08,10,08,29,17.20
2020,08,10,08,30,17.20
2020,08,10,08,31,17.30
2020,08,10,08,32,17.30
2020,08,10,08,33,17.40
2020,08,10,08,34,17.40
2020,08,10,08,35,17.40
2020,08,10,08,36,17.50
2020,08,10,08,37,17.50
2020,08,10,08,38,17.60
2020,08,10,08,39,17.60
2020,08,10,08,41,17.70
2020,08,10,08,43,17.70
2020,08,10,08,44,17.80
2020,08,10,08,45,17.80
2020,08,10,08,47,17.90
2020,08,10,08,50,18.10
2020,08,10,08,52,18.10
2020,08,10,08,53,18.20
2020,08,10,08,54,18.20
2020,08,10,08,55,18.20
2020,08,10,08,56,18.20
2020,08,10,08,57,18.30
2020,08,10,08,58,18.30
2020,08,10,08,59,18.40
2020,08,10,09,00,18.50
2020,08,10,09,01,18.60
2020,08,10,09,02,18.70
2020,08,10,09,03,18.70
2020,08,10,09,05,18.90
2020,08,10,09,06,18.90
2020,08,10,09,07,19.10
2020,08,10,09,11,19.40
2020,08,10,09,13,19.60
2020,08,10,09,15,19.70
2020,08,10,09,16,19.80
2020,08,10,09,17,19.80
2020,08,10,09,18,19.90
2020,08,10,09,19,19.90
2020,08,10,09,24,20.20
2020,08,10,09,25,20.30
2020,08,10,09,26,20.30
2020,08,10,09,27,20.20
2020,08,10,09,28,20.20
2020,08,10,09,30,20.20
2020,08,10,09,31,20.20
2020,08,10,09,32,20.20
2020,08,10,09,33,20.30
2020,08,10,09,34,20.30
2020,08,10,09,36,20.40
2020,08,10,09,37,20.40
2020,08,10,09,39,20.50
2020,08,10,09,41,20.60
2020,08,10,09,43,20.70
2020,08,10,09,45,20.80
2020,08,10,09,46,20.80
2020,08,10,09,47,20.90
2020,08,10,09,48,20.90
2020,08,10,09,49,20.90
2020,08,10,09,50,20.90
2020,08,10,09,51,20.90
2020,08,10,09,52,20.90
2020,08,10,09,53,21.00
2020,08,10,09,54,20.90
2020,08,10,09,55,20.90
2020,08,10,09,56,21.00
2020,08,10,09,57,21.00
2020,08,10,09,58,21.00
2020,08,10,10,00,20.90
2020,08,10,10,01,20.80
2020,08,10,10,02,20.80
2020,08,10,10,03,20.80
2020,08,10,10,04,20.80
2020,08,10,10,05,20.80
2020,08,10,10,06,20.80
2020,08,10,10,07,20.90
2020,08,10,10,08,20.90
2020,08,10,10,09,20.90
2020,08,10,10,10,21.00
2020,08,10,10,11,21.00
2020,08,10,10,12,21.00
2020,08,10,10,13,21.00
2020,08,10,10,14,21.00
2020,08,10,10,15,21.00
2020,08,10,10,16,21.10
2020,08,10,10,17,21.10
2020,08,10,10,18,21.00
2020,08,10,10,20,21.10
2020,08,10,10,22,21.20
2020,08,10,10,24,21.30
2020,08,10,10,25,21.30
2020,08,10,10,26,21.30
2020,08,10,10,27,21.40
2020,08,10,10,28,21.40
2020,08,10,10,30,21.60
2020,08,10,10,31,21.70
2020,08,10,10,33,21.70
2020,08,10,10,34,21.70
2020,08,10,10,35,21.60
2020,08,10,10,36,21.60
2020,08,10,10,38,21.50
2020,08,10,10,40,21.50
2020,08,10,10,41,21.50
2020,08,10,10,42,21.50
2020,08,10,10,43,21.60
2020,08,10,10,44,21.60
2020,08,10,10,45,21.70
2020,08,10,10,46,21.80
2020,08,10,10,48,21.90
2020,08,10,10,49,21.90
2020,08,10,10,50,21.90
2020,08,10,10,51,21.90
2020,08,10,10,52,22.00
2020,08,10,10,54,22.10
2020,08,10,10,56,22.10
2020,08,10,10,58,21.90
2020,08,10,10,59,21.90
2020,08,10,11,02,21.90
2020,08,10,11,04,21.90
2020,08,10,11,05,22.00
2020,08,10,11,06,22.10
2020,08,10,11,07,22.20
2020,08,10,11,09,22.20
2020,08,10,11,11,22.30
2020,08,10,11,15,22.30
2020,08,10,11,16,22.20
2020,08,10,11,17,22.20
2020,08,10,11,18,22.20
2020,08,10,11,20,22.10
2020,08,10,11,22,22.10
2020,08,10,11,23,22.10
2020,08,10,11,24,22.20
2020,08,10,11,25,22.30
2020,08,10,11,26,22.40
2020,08,10,11,28,22.50
2020,08,10,11,30,22.60
2020,08,10,11,31,22.60
2020,08,10,11,32,22.60
2020,08,10,11,33,22.60
2020,08,10,11,35,22.70
2020,08,10,11,37,22.70
2020,08,10,11,39,22.80
2020,08,10,11,41,23.00
2020,08,10,11,42,23.00
2020,08,10,11,43,23.00
2020,08,10,11,44,23.00
2020,08,10,11,45,23.10
2020,08,10,11,46,23.10
2020,08,10,11,47,23.00
2020,08,10,11,48,22.90
2020,08,10,11,49,22.90
2020,08,10,11,50,22.90
2020,08,10,11,52,23.00
2020,08,10,11,53,23.10
2020,08,10,11,54,23.20
2020,08,10,11,55,23.30
2020,08,10,11,56,23.30
2020,08,10,11,57,23.40
2020,08,10,11,58,23.40
2020,08,10,12,00,23.60
2020,08,10,12,01,23.60
2020,08,10,12,05,23.80
2020,08,10,12,07,23.80
2020,08,10,12,10,23.80
2020,08,10,12,11,23.80
2020,08,10,12,12,23.80
2020,08,10,12,13,23.70
2020,08,10,12,14,23.70
2020,08,10,12,15,23.70
2020,08,10,12,16,23.70
2020,08,10,12,17,23.80
2020,08,10,12,18,23.80
2020,08,10,12,19,23.80
2020,08,10,12,20,23.70
2020,08,10,12,21,23.70
2020,08,10,12,24,23.80
2020,08,10,12,25,23.90
2020,08,10,12,26,24.00
2020,08,10,12,27,24.10
2020,08,10,12,28,24.10
2020,08,10,12,29,24.10
2020,08,10,12,30,24.20
2020,08,10,12,32,24.10
2020,08,10,12,33,24.10
2020,08,10,12,34,24.10
2020,08,10,12,35,24.10
2020,08,10,12,37,24.20
2020,08,10,12,39,24.40
2020,08,10,12,40,24.40
2020,08,10,12,41,24.50
2020,08,10,12,42,24.60
2020,08,10,12,43,24.60
2020,08,10,12,44,24.70
2020,08,10,12,45,24.70
2020,08,10,12,46,24.80
2020,08,10,12,47,24.90
2020,08,10,12,48,25.00
2020,08,10,12,49,25.10
2020,08,10,12,50,25.20
2020,08,10,12,52,25.30
2020,08,10,12,54,25.40
2020,08,10,12,56,25.50
2020,08,10,12,58,25.70
2020,08,10,13,00,25.90
2020,08,10,13,01,25.80
2020,08,10,13,02,25.90
2020,08,10,13,03,25.90
2020,08,10,13,04,25.90
2020,08,10,13,05,25.90
2020,08,10,13,07,25.80
2020,08,10,13,10,25.80
2020,08,10,13,11,25.90
2020,08,10,13,13,25.90
2020,08,10,13,15,25.90
2020,08,10,13,17,25.90
2020,08,10,13,18,26.00
2020,08,10,13,19,25.90
2020,08,10,13,20,25.80
2020,08,10,13,21,25.80
2020,08,10,13,23,25.80
2020,08,10,13,24,26.00
2020,08,10,13,25,26.10
2020,08,10,13,26,26.20
2020,08,10,13,27,26.30
2020,08,10,13,28,26.40
2020,08,10,13,31,26.30
2020,08,10,13,32,26.30
2020,08,10,13,34,26.20
2020,08,10,13,35,26.00
2020,08,10,13,37,25.90
2020,08,10,13,38,25.90
2020,08,10,13,40,25.80
2020,08,10,13,41,25.80
2020,08,10,13,42,25.90
2020,08,10,13,43,26.10
2020,08,10,13,45,26.30
2020,08,10,13,46,26.30
2020,08,10,13,47,26.30
2020,08,10,13,50,26.60
2020,08,10,13,51,26.80
2020,08,10,13,53,27.00
2020,08,10,13,54,27.10
2020,08,10,13,55,27.10
2020,08,10,13,56,27.10
2020,08,10,13,57,27.10
2020,08,10,13,58,27.10
2020,08,10,14,00,27.10
2020,08,10,14,02,27.10
2020,08,10,14,03,27.00
2020,08,10,14,04,27.00
2020,08,10,14,05,27.00
2020,08,10,14,06,26.90
2020,08,10,14,07,26.80
2020,08,10,14,08,26.80
2020,08,10,14,09,26.80
2020,08,10,14,10,26.80
2020,08,10,14,11,26.80
2020,08,10,14,12,26.80
2020,08,10,14,13,26.80
2020,08,10,14,15,26.90
2020,08,10,14,16,27.00
2020,08,10,14,17,27.10
2020,08,10,14,19,27.30
2020,08,10,14,21,27.60
2020,08,10,14,22,27.70
2020,08,10,14,23,27.80
2020,08,10,14,24,27.80
2020,08,10,14,25,27.80
2020,08,10,14,26,27.80
2020,08,10,14,27,27.80
2020,08,10,14,28,27.80
2020,08,10,14,30,27.90
2020,08,10,14,31,28.10
2020,08,10,14,32,28.10
2020,08,10,14,33,28.10
2020,08,10,14,34,28.10
2020,08,10,14,36,27.90
2020,08,10,14,37,27.80
2020,08,10,14,38,27.90
2020,08,10,14,39,27.80
2020,08,10,14,40,27.80
2020,08,10,14,41,27.80
2020,08,10,14,43,27.70
2020,08,10,14,45,27.70
2020,08,10,14,47,27.60
2020,08,10,14,48,27.60
2020,08,10,14,50,27.80
2020,08,10,14,51,27.80
2020,08,10,14,52,27.90
2020,08,10,14,55,27.80
2020,08,10,14,58,27.80
2020,08,10,14,59,27.70
2020,08,10,15,00,27.70
2020,08,10,15,01,27.70
2020,08,10,15,03,27.80
2020,08,10,15,04,27.90
2020,08,10,15,06,28.10
2020,08,10,15,08,28.10
2020,08,10,15,10,28.10
2020,08,10,15,11,28.20
2020,08,10,15,12,28.20
2020,08,10,15,13,28.30
2020,08,10,15,15,28.30
2020,08,10,15,16,28.30
2020,08,10,15,17,28.30
2020,08,10,15,19,28.40
2020,08,10,15,21,28.30
2020,08,10,15,22,28.30
2020,08,10,15,23,28.30
2020,08,10,15,24,28.20
2020,08,10,15,25,28.20
2020,08,10,15,26,28.20
2020,08,10,15,28,28.30
2020,08,10,15,29,28.40
2020,08,10,15,30,28.40
2020,08,10,15,34,28.30
2020,08,10,15,35,28.30
2020,08,10,15,36,28.40
2020,08,10,15,37,28.40
2020,08,10,15,38,28.40
2020,08,10,15,40,28.40
2020,08,10,15,42,28.30
2020,08,10,15,43,28.30
2020,08,10,15,45,28.30
2020,08,10,15,46,28.20
2020,08,10,15,47,28.10
2020,08,10,15,49,28.00
2020,08,10,15,51,27.80
2020,08,10,15,52,27.80
2020,08,10,15,53,27.80
2020,08,10,15,55,27.80
2020,08,10,15,56,27.80
2020,08,10,15,57,27.80
2020,08,10,15,59,27.80
2020,08,10,16,00,27.80
2020,08,10,16,02,27.80
2020,08,10,16,03,27.80
2020,08,10,16,04,27.70
2020,08,10,16,05,27.60
2020,08,10,16,06,27.60
2020,08,10,16,08,27.60
2020,08,10,16,09,27.70
2020,08,10,16,10,27.70
2020,08,10,16,11,27.70
2020,08,10,16,12,27.70
2020,08,10,16,13,27.80
2020,08,10,16,14,27.80
2020,08,10,16,15,27.80
2020,08,10,16,16,27.80
2020,08,10,16,17,27.80
2020,08,10,16,18,27.80
2020,08,10,16,19,27.80
2020,08,10,16,21,27.90
2020,08,10,16,23,28.00
2020,08,10,16,24,27.90
2020,08,10,16,26,27.90
2020,08,10,16,27,27.80
2020,08,10,16,29,27.90
2020,08,10,16,30,27.90
2020,08,10,16,31,28.00
2020,08,10,16,32,28.10
2020,08,10,16,33,28.20
2020,08,10,16,35,28.10
2020,08,10,16,36,28.10
2020,08,10,16,38,27.80
2020,08,10,16,39,27.70
2020,08,10,16,40,27.70
2020,08,10,16,42,27.60
2020,08,10,16,43,27.60
2020,08,10,16,44,27.60
2020,08,10,16,45,27.70
2020,08,10,16,46,27.80
2020,08,10,16,47,27.90
2020,08,10,16,49,28.10
2020,08,10,16,52,28.20
2020,08,10,16,53,28.20
2020,08,10,16,55,28.20
2020,08,10,16,56,28.20
2020,08,10,16,57,28.10
2020,08,10,16,58,28.00
2020,08,10,16,59,27.90
2020,08,10,17,00,27.90
2020,08,10,17,02,28.00
2020,08,10,17,03,27.90
2020,08,10,17,04,27.80
2020,08,10,17,06,27.30
2020,08,10,17,07,27.20
2020,08,10,17,08,27.20
2020,08,10,17,09,27.20
2020,08,10,17,10,27.20
2020,08,10,17,11,27.20
2020,08,10,17,12,27.20
2020,08,10,17,13,27.30
2020,08,10,17,14,27.40
2020,08,10,17,15,27.60
2020,08,10,17,16,27.70
2020,08,10,17,17,27.70
2020,08,10,17,19,27.90
2020,08,10,17,20,27.90
2020,08,10,17,21,27.90
2020,08,10,17,23,27.90
2020,08,10,17,26,27.60
2020,08,10,17,27,27.50
2020,08,10,17,28,27.50
2020,08,10,17,29,27.50
2020,08,10,17,30,27.50
2020,08,10,17,31,27.60
2020,08,10,17,33,27.60
2020,08,10,17,34,27.50
2020,08,10,17,35,27.50
2020,08,10,17,36,27.40
2020,08,10,17,38,27.40
2020,08,10,17,40,27.40
2020,08,10,17,42,27.40
2020,08,10,17,44,27.60
2020,08,10,17,46,27.60
2020,08,10,17,47,27.70
2020,08,10,17,49,27.70
2020,08,10,17,50,27.60
2020,08,10,17,51,27.60
2020,08,10,17,53,27.40
2020,08,10,17,55,27.40
2020,08,10,17,56,27.40
2020,08,10,17,57,27.30
2020,08,10,17,58,27.30
2020,08,10,17,59,27.20
2020,08,10,18,00,27.10
2020,08,10,18,01,27.00
2020,08,10,18,02,26.80
2020,08,10,18,03,26.70
2020,08,10,18,05,26.40
2020,08,10,18,07,26.30
2020,08,10,18,08,26.30
2020,08,10,18,09,26.30
2020,08,10,18,10,26.30
2020,08,10,18,11,26.30
2020,08,10,18,12,26.30
2020,08,10,18,13,26.30
2020,08,10,18,14,26.30
2020,08,10,18,15,26.30
2020,08,10,18,16,26.30
2020,08,10,18,17,26.30
2020,08,10,18,20,26.30
2020,08,10,18,22,26.40
2020,08,10,18,23,26.30
2020,08,10,18,24,26.30
2020,08,10,18,25,26.20
2020,08,10,18,28,26.20
2020,08,10,18,29,26.20
2020,08,10,18,32,25.80
2020,08,10,18,33,25.60
2020,08,10,18,35,25.40
2020,08,10,18,36,25.30
2020,08,10,18,37,25.30
2020,08,10,18,38,25.30
2020,08,10,18,39,25.30
2020,08,10,18,40,25.20
2020,08,10,18,42,25.10
2020,08,10,18,44,24.90
2020,08,10,18,45,24.90
2020,08,10,18,46,24.90
2020,08,10,18,47,25.00
2020,08,10,18,48,25.10
2020,08,10,18,50,25.10
2020,08,10,18,51,25.10
2020,08,10,18,52,25.10
2020,08,10,18,53,25.10
2020,08,10,18,55,25.10
2020,08,10,18,56,25.00
2020,08,10,18,57,24.90
2020,08,10,18,59,24.80
2020,08,10,19,00,24.80
2020,08,10,19,01,24.90
2020,08,10,19,02,24.90
2020,08,10,19,03,24.90
2020,08,10,19,04,24.80
2020,08,10,19,05,24.60
2020,08,10,19,07,24.40
2020,08,10,19,08,24.30
2020,08,10,19,09,24.30
2020,08,10,19,10,24.30
2020,08,10,19,11,24.20
2020,08,10,19,12,24.20
2020,08,10,19,13,24.10
2020,08,10,19,16,23.80
2020,08,10,19,17,23.70
2020,08,10,19,18,23.80
2020,08,10,19,20,23.70
2020,08,10,19,22,23.70
2020,08,10,19,25,23.60
2020,08,10,19,26,23.60
2020,08,10,19,28,23.50
2020,08,10,19,29,23.60
2020,08,10,19,30,23.60
2020,08,10,19,31,23.70
2020,08,10,19,32,23.60
2020,08,10,19,33,23.60
2020,08,10,19,35,23.50
2020,08,10,19,36,23.50
2020,08,10,19,37,23.50
2020,08,10,19,38,23.50
2020,08,10,19,40,23.60
2020,08,10,19,41,23.60
2020,08,10,19,42,23.60
2020,08,10,19,44,23.40
2020,08,10,19,45,23.30
2020,08,10,19,46,23.30
2020,08,10,19,47,23.20
2020,08,10,19,48,23.20
2020,08,10,19,50,23.00
2020,08,10,19,52,23.00
2020,08,10,19,53,22.90
2020,08,10,19,54,22.90
2020,08,10,19,55,22.90
2020,08,10,19,59,22.70
2020,08,10,20,00,22.70
2020,08,10,20,01,22.70
2020,08,10,20,02,22.70
2020,08,10,20,03,22.70
2020,08,10,20,06,22.50
2020,08,10,20,07,22.40
2020,08,10,20,08,22.40
2020,08,10,20,09,22.40
2020,08,10,20,10,22.30
2020,08,10,20,11,22.30
2020,08,10,20,16,22.10
2020,08,10,20,17,22.10
2020,08,10,20,18,22.10
2020,08,10,20,19,22.00
2020,08,10,20,20,22.00
2020,08,10,20,21,21.90
2020,08,10,20,22,21.90
2020,08,10,20,23,21.90
2020,08,10,20,24,21.80
2020,08,10,20,25,21.80
2020,08,10,20,26,21.80
2020,08,10,20,27,21.70
2020,08,10,20,28,21.70
2020,08,10,20,29,21.70
2020,08,10,20,30,21.70
2020,08,10,20,31,21.70
2020,08,10,20,33,21.60
2020,08,10,20,34,21.60
2020,08,10,20,35,21.60
2020,08,10,20,36,21.50